Weather in Elva

Estonia     58°15′04″N   26°28′17″E
temp.,
°C
wind,
m/s
gust,
m/s
humid.,
%
clouds,
%
prec.,
mm/h
press.,
hPa
HPBL,
m
22 october, fri
fri2200:00+9sw9207689 1.5 9771688
03:00+7sw112173100 1.6 9801747
06:00+6sw10217770 0.4 9811630
09:00+6wsw9187749 1.2 9821477
12:00+7wsw10187112 0.5 9851820
15:00+7wsw1018655 0.7 9871799
18:00+6wsw816695 0.0 9891305
21:00+5sw5127748 0.0 990698
23 october, sat
sat2300:00+4sw5119215 0.0 991474
03:00+3sw512905 0.0 992416
06:00+4wsw5118677 0.0 993612
09:00+4wnw61196100 0.8 995930
12:00+2wnw51196100 0.9 999541
15:00+3wnw51096100 1.3 1003672
18:00+3nw51197100 0.2 1007648
21:00+3nnw5987100 0.3 1011788
24 october, sun
sun2400:00+2nw5990100 0.1 1014709
03:00+1nw51087100 0.2 1017727
06:00+1nw4108589 0.0 1020588
09:00−1nw410885 0.0 1023418
12:00+2nnw4671100 0.0 1025740
15:00+3nw346347 0.0 1027925
18:00+1w227793 0.0 102826
21:00+1sw2477100 0.0 1028117
25 october, mon
mon2500:000ssw3877100 0.0 1027205
03:00+1ssw4128396 0.0 1026355
06:00+1ssw51488100 0.0 1024398
09:00+4sw61585100 0.0 1023523
12:00+6sw61379100 0.0 1022646
15:00+7sw61279100 0.0 1021783
18:00+6sw5117966 0.0 1021717
21:00+4sw514835 0.0 1020479
26 october, tue
tue2600:00+4sw5148042 0.0 1019465
03:00+3ssw41383100 0.0 1018383
06:00+2ssw41284100 0.0 1016344
09:00+2ssw41284100 0.0 1015366
12:00+6sw5117499 0.0 1014479
15:00+8sw5107796 0.0 1013775
18:00+7sw51183100 0.0 1013738
21:00+7sw61488100 0.2 1012635